Find Starlink 4422

NORAD ID: 53639 Int'l Des: 2022-104 Owner: SPXS Country: US Constellation: starlink operational
LEOCIRCULAR

实时位置

正在加载3D地球...

关于 Starlink 4422

正在加载描述...

即将过境

Passes for default location (London). Set your location on the main map for personalized predictions.

高度历史

Loading altitude history...

两行轨道根数

1 53639U 22104BD 26120.25002315 .00025174 00000-0 12550-2 0 9998
2 53639 53.2162 352.1232 0001619 61.6539 51.6025 15.17415958 5754
Epoch: Apr 30, 2026 • Age: 10 hours

当前状态

高度 531.8 km
速度 7.60 km/s
星下点 -49.63°S, 131.19°E
发射日期 Aug 28, 2022
运行时间 3.6 years
类型 internet

技术详情

分类 Payload
质量 300.00 kg
干质量 290.00 kg
总质量 300.00 kg
长度 0.20 m
直径 2.80 m
跨度 9.00 m
形状 Box + pan
制造商 SPXS
平台类型 Starlink
阶段状态 In Orbit
所有者/国家 SPXS/US

Most Searched